Location: Burgerwiesen
(48.6500°N, 15.6167°E)
Time: 17:22:08
(UTC+00:00)

SL-08 RB Rocket - Pass Details

Date: 09 April 2020
Orbit: 646 x 684 km, 97.8° (Epoch: 24 May)

Event Time Altitude Azimuth Distance (km) Brightness Sun altitude
Exits shadow 18:56:20 - 172° (S) 2,779 6.6 -12.5°
Reaches altitude 10° 18:58:02 10° 175° (S) 2,085 5.9 -12.8°
Maximum altitude 19:02:35 68° 258° (WSW) 727 4.1 -13.4°
Drops below altitude 10° 19:07:12 10° 342° (NNW) 2,125 7.0 -14.1°
Sets 19:09:29 0° 345° (NNW) 3,049 7.8 -14.4°
